Location: Newark
(47.7394°N, 8.0008°E)
Time: 06:29:15
(UTC+00:00)

N. Korean satellite - Pass Details

Date: 15 December 2019
Orbit: 454 x 507 km, 97.2° (Epoch: 27 January)

Event Time Altitude Azimuth Distance (km) Brightness Sun altitude
Rises 04:26:06 0° 28° (NNE) 2,531 10.5 -26.3°
Reaches altitude 10° 04:28:46 10° 50° (NE) 1,636 9.7 -25.9°
Maximum altitude 04:31:05 17° 92° (E) 1,269 9.5 -25.5°
Drops below altitude 10° 04:33:22 10° 133° (SE) 1,610 9.9 -25.1°
Sets 04:35:57 0° 155° (SSE) 2,470 10.6 -24.7°
